Location: Aulnoy
(48.8410°N, 3.0967°E)
Time: 19:35:46
(UTC+00:00)

Envisat - Visible Passes

Search period start: 28 February 2024 00:00
Search period end: 09 March 2024 00:00
Orbit: 762 x 764 km, 98.3° (Epoch: 28 February)

Date Brightness Start Highest point End Pass type
(mag) Time Alt. Az. Time Alt. Az. Time Alt. Az.
28 Feb 3.9 03:17:58 10° NNE 03:21:27 44° NNE 03:21:27 44° NNE visible
28 Feb 4.4 04:58:02 10° NNW 05:01:29 19° WNW 05:01:37 19° WNW visible
29 Feb 4.8 02:40:55 10° NNE 02:43:51 28° NE 02:43:51 28° NE visible
29 Feb 3.8 04:20:01 10° N 04:24:02 33° NW 04:24:02 33° NW visible
01 Mar 5.6 02:04:30 10° NE 02:06:15 16° ENE 02:06:15 16° ENE visible
01 Mar 3.4 03:42:24 10° N 03:46:25 53° NNW 03:46:25 53° NNW visible
01 Mar 4.8 05:23:29 10° NNW 05:25:31 12° NW 05:26:36 12° WNW visible
02 Mar 3.9 03:05:06 10° NNE 03:08:50 45° NE 03:08:50 45° NE visible
02 Mar 4.2 04:44:49 10° N 04:48:44 23° WNW 04:49:00 23° WNW visible
03 Mar 4.9 02:28:13 10° NE 02:31:14 25° ENE 02:31:14 25° ENE visible
03 Mar 3.4 04:06:57 10° N 04:11:25 42° WNW 04:11:25 42° WNW visible
04 Mar 5.7 01:52:13 10° NE 01:53:39 13° ENE 01:53:39 13° ENE visible
04 Mar 3.2 03:29:27 10° NNE 03:33:50 66° N 03:33:50 66° N visible
04 Mar 4.6 05:09:56 10° NNW 05:12:49 15° NW 05:14:00 14° WNW visible
05 Mar 4.1 02:52:17 10° NNE 02:56:14 41° ENE 02:56:14 41° ENE visible
05 Mar 3.9 04:31:41 10° N 04:35:58 28° WNW 04:36:25 28° WNW visible
06 Mar 5.1 02:15:36 10° NE 02:18:38 22° ENE 02:18:38 22° ENE visible
06 Mar 3.1 03:53:57 10° N 03:58:48 54° WNW 03:58:48 54° WNW visible
07 Mar 5.9 01:40:35 10° ENE 01:41:03 10° ENE 01:41:03 10° ENE visible
07 Mar 3.2 03:16:33 10° NNE 03:21:13 70° ENE 03:21:13 70° ENE visible
07 Mar 4.4 04:56:36 10° NNW 05:00:04 19° WNW 05:01:23 17° WNW visible
08 Mar 4.3 02:39:31 10° NNE 02:43:37 35° E 02:43:37 35° E visible
08 Mar 3.6 04:18:35 10° N 04:23:10 35° WNW 04:23:48 34° W visible
